APRIZESAT 4

Last updated on Wed Sep 23 2026 00:03:51 GMT+0000 (Coordinated Universal Time)

1 35684U 09041D 26265.15275667 .00000356 00000+0 49103-4 0 9994 2 35684 98.1339 342.3706 0043318 8.8364 351.3602 14.83996051925747
UTC large
Height (km)
Speed (km/s)
/
Latitude / Longitude
Inclination (degrees)
Orbital Period (minutes)
Azimuth
Elevation
Range (km)
Doppler Factor

Next 0 passes for location: London (51.5072 / 0.1276)

No passes found over London.
APRIZESAT 4